Simultaneous Nadir Overpasses (SNOs) Predictions

Prediction of SNOs between GOES-14 and NOAA-20 Satellite Orbit:

Table of predicted SNOs for the next 14.0 days since TLE Epoch: 11/20/2020
Index Date Time (GOES-14) GOES-14 Lat,Lon NOAA-20 Lat,Lon Distance(km) Time Diff (sec)
1 11/21/2020 08:38:48 0.00,-104.38 0.84,-108.10 423.54 80
2 11/22/2020 08:17:24 0.02,-104.37 -0.16,-103.56 92.05 80
3 11/24/2020 20:20:36 -0.01,-104.16 -0.06,-104.33 19.60 80
4 11/25/2020 20:04:31 -0.02,-104.17 0.94, -99.80 497.87 80
5 11/27/2020 08:26:21 -0.01,-104.39 0.13,-105.09 79.73 80
6 11/28/2020 08:04:57 0.01,-104.38 -0.87,-100.56 436.21 80
7 11/29/2020 20:26:53 0.01,-104.15 -0.34,-105.86 193.62 80
8 11/30/2020 20:10:49 -0.00,-104.16 0.66,-101.32 323.52 80
9 12/02/2020 08:32:38 -0.02,-104.39 0.47,-106.61 252.04 80
10 12/03/2020 08:11:14 -0.00,-104.39 -0.53,-102.08 263.61 80
11 12/04/2020 20:33:10 0.03,-104.13 -0.67,-107.37 368.94 80
